Tracking 22438 objects as of 24-Feb-2021
HD Live streaming from Space Station
objects crossing your sky now

BREEZE-M DEB

Track BREEZE-M DEB now!
10-day predictions


NORAD ID: 34234
Int'l Code: 2006-006AZ
Perigee: 388.7 km
Apogee: 13,011.2 km
Inclination: 51.6 °
Period: 247.9 minutes
Semi major axis: 13070 km
RCS: 0.011 m2 (small)
Launch date: February 28, 2006
Source: Commonwealth of Independent States (former USSR) (CIS)
Launch site: TYURATAM MISSILE AND SPACE COMPLEX (TTMTR)

Note: This is SATELLITE DEBRIS
aabbcc
Your satellite tracking list
Your tracking list is empty




NASA's NSSDC Master Catalog

Two Line Element Set (TLE):
1 34234U 06006AZ  20234.71748525 +.00002708 +00000-0 +11858-2 0  9990
2 34234 051.5551 268.0097 4828440 233.2077 072.1829 05.80954292250040
Source of the keplerian elements: AFSPC